Weather History for Scottsdale, AZ

Change the Weather History Date:

Saturday, November 16, 2013

  Actual Average Record
Temperature  
Mean Temperature 64 °F -  
Max Temperature 69 °F 71 °F 86 °F (1999)
Min Temperature 60 °F 48 °F 37 °F (2000)
Growing Degree Days 14 (Base 50)    
Moisture  
Dew Point 49 °F    
Average Humidity 60    
Maximum Humidity 75    
Minimum Humidity 42    
Precipitation  
Precipitation 0.00 in - - ()
Sea Level Pressure  
Sea Level Pressure 29.77 in    
Wind  
Wind Speed 2 mph (South)    
Max Wind Speed 10 mph    
Max Gust Speed -    
Visibility 10 miles    
Events      
Averages and records for this station are not official NWS values.
T = Trace of Precipitation, MM = Missing Value Source: NWS Daily Summary

Daily Weather History Graph

Daily Weather History Graph

Search for Another Location

Airport:

Trip Planner

Search our weather history database for the weather conditions in past years. The results will help you decide how hot, cold, wet, or windy it might be!

Date:

Astronomy

Nov. 16, 2013 Rise Set
Actual Time 7:00 AM MST 5:24 PM MST
Civil Twilight 6:34 AM MST 5:50 PM MST
Nautical Twilight 6:04 AM MST 6:20 PM MST
Astronomical Twilight 5:34 AM MST 6:50 PM MST
Moon 5:00 PM MST (11/16) 6:02 AM MST (11/16)
Length of Visible Light 11h 16m
Length of Day
10h 23m
Waxing Gibbous, 99% of the Moon is Illuminated
Nov 16
Waxing Gibbous
Nov 17
Full
Nov 25
Last Quarter
Dec 2
New
Dec 9
First Quarter

Hourly Weather History & Observations

Time (MST) Temp. Dew Point Humidity Pressure Visibility Wind Dir Wind Speed Gust Speed Precip Events Conditions
12:53 AM 64.9 °F 52.0 °F 63% 29.67 in 10.0 mi West 3.5 mph - N/A   Scattered Clouds
1:53 AM 64.0 °F 52.0 °F 65% 29.66 in 10.0 mi Calm Calm - N/A   Partly Cloudy
2:53 AM 63.0 °F 53.1 °F 70% 29.67 in 10.0 mi NNW 3.5 mph - N/A   Clear
3:53 AM 62.1 °F 52.0 °F 70% 29.68 in 10.0 mi Calm Calm - N/A   Partly Cloudy
4:53 AM 62.1 °F 52.0 °F 70% 29.69 in 10.0 mi Calm Calm - N/A   Mostly Cloudy
5:53 AM 61.0 °F 52.0 °F 72% 29.70 in 10.0 mi Calm Calm - N/A   Mostly Cloudy
6:25 AM 60.8 °F 51.8 °F 72% 29.77 in 10.0 mi Calm Calm - N/A   Mostly Cloudy
6:53 AM 60.1 °F 52.0 °F 75% 29.72 in 10.0 mi Calm Calm - N/A   Overcast
7:07 AM 60.8 °F 51.8 °F 72% 29.78 in 10.0 mi WSW 3.5 mph - N/A   Overcast
7:18 AM 60.8 °F 51.8 °F 72% 29.79 in 10.0 mi WSW 3.5 mph - N/A   Overcast
7:53 AM 61.0 °F 52.0 °F 72% 29.75 in 10.0 mi South 3.5 mph - N/A   Overcast
8:15 AM 60.8 °F 51.8 °F 72% 29.80 in 10.0 mi Calm Calm - N/A   Mostly Cloudy
8:38 AM 60.8 °F 51.8 °F 72% 29.81 in 10.0 mi Calm Calm - N/A   Mostly Cloudy
8:53 AM 62.1 °F 52.0 °F 70% 29.78 in 10.0 mi Calm Calm - N/A   Overcast
9:31 AM 62.6 °F 51.8 °F 68% 29.83 in 10.0 mi Variable 4.6 mph - N/A   Mostly Cloudy
9:53 AM 63.0 °F 52.0 °F 67% 29.79 in 10.0 mi ESE 4.6 mph - N/A   Overcast
10:26 AM 62.6 °F 51.8 °F 68% 29.84 in 10.0 mi SE 6.9 mph - N/A   Mostly Cloudy
10:53 AM 64.0 °F 51.1 °F 63% 29.81 in 10.0 mi South 5.8 mph - N/A   Overcast
11:07 AM 64.4 °F 50.0 °F 59% 29.85 in 10.0 mi South 4.6 mph - N/A   Overcast
11:53 AM 64.9 °F 48.9 °F 56% 29.79 in 10.0 mi SSW 9.2 mph - N/A   Mostly Cloudy
12:53 PM 68.0 °F 46.0 °F 45% 29.76 in 10.0 mi SW 10.4 mph - N/A   Mostly Cloudy
1:53 PM 68.0 °F 46.9 °F 47% 29.74 in 10.0 mi South 4.6 mph - N/A   Mostly Cloudy
2:53 PM 69.1 °F 46.9 °F 45% 29.72 in 10.0 mi ESE 3.5 mph - N/A   Mostly Cloudy
3:53 PM 69.1 °F 45.0 °F 42% 29.72 in 10.0 mi Calm Calm - N/A   Partly Cloudy
4:53 PM 68.0 °F 44.1 °F 42% 29.73 in 10.0 mi Calm Calm - N/A   Scattered Clouds
5:53 PM 66.9 °F 44.1 °F 44% 29.75 in 10.0 mi Calm Calm - N/A   Partly Cloudy
6:53 PM 64.9 °F 42.1 °F 43% 29.79 in 10.0 mi Calm Calm - N/A   Clear
7:53 PM 64.0 °F 42.1 °F 45% 29.80 in 10.0 mi Calm Calm - N/A   Mostly Cloudy
8:53 PM 63.0 °F 42.1 °F 46% 29.82 in 10.0 mi NE 4.6 mph - N/A   Clear
9:53 PM 62.1 °F 43.0 °F 50% 29.84 in 10.0 mi Calm Calm - N/A   Clear
10:53 PM 61.0 °F 43.0 °F 52% 29.86 in 10.0 mi Calm Calm - N/A   Scattered Clouds
11:53 PM 61.0 °F 43.0 °F 52% 29.88 in 10.0 mi ENE 3.5 mph - N/A   Overcast